Flag for Germany Weather past 2 weeks in Kamen, North Rhine-Westphalia, Germany

Now
59 °F

Scattered showers. Partly sunny.


Feels Like: 59 °F
Forecast: 50 / 73 °F
Wind: 5 mph from Southeast

Location: Dortmund / Wickede


UV Index: 3 (Moderate)

Visibility: N/A


Pressure: 30.09 "Hg

Humidity: 72%

Dew point: 50 °F

Location of KamenLocation

Historic Weather in Kamen

°F

Kamen temperature yesterday

Maximum temperature yesterday: 66 °F (at 5:20 PM)
Minimum temperature yesterday: 45 °F (at 5:20 AM)
Average temperature yesterday: 57 °F

Past Weeks' High & Low Weather Summary

 TemperatureHumidityPressure
High68 °F (Apr 20, 2:20 PM)94% (Apr 21, 8:20 PM)30.45 "Hg (Apr 21, 8:20 PM)
Low30 °F (Apr 16, 5:20 AM)29% (Apr 17, 3:50 PM)29.65 "Hg (Apr 21, 2:50 PM)
Average51 °F66%30.05 "Hg
* Reported Apr 8 6:20 PM — Apr 23 6:50 PM, Kamen, Weather by CustomWeather, © 2014

Note: Actual official high and low records may vary slightly from our data, if they occured in-between our weather recording intervals... More about our weather records

Advertising

Historic Weather Conditions — Data for Previous 24 hours

 ConditionsComfort  
Time TempWeatherWind HumidityBarometerVisibility
6:50 PM
Apr 23
59 °FThundershowers. Scattered clouds.9 mph72%30.09 "HgN/A
6:20 PM64 °FThundershowers. Scattered clouds.14 mph52%30.07 "HgN/A
5:50 PM66 °FPassing clouds.10 mph46%30.07 "HgN/A
5:20 PM64 °FSunny.12 mph52%30.07 "Hg10 mi
4:50 PM66 °FPassing clouds.5 mph49%30.07 "HgN/A
4:20 PM66 °FSunny.5 mph49%30.07 "Hg10 mi
3:50 PM68 °FSunny.2 mph43%30.09 "Hg10 mi
3:20 PM68 °FSunny.5 mph49%30.09 "Hg10 mi
2:50 PM66 °FSunny.5 mph52%30.09 "Hg10 mi
2:20 PM64 °FScattered showers. Clear.2 mph64%30.09 "HgN/A
1:50 PM64 °FScattered showers. Scattered clouds.3 mph56%30.09 "HgN/A
1:20 PM64 °FScattered showers. Clear.5 mph56%30.09 "HgN/A
12:50 PM63 °FSunny.3 mph68%30.09 "Hg10 mi
12:20 PM64 °FSunny.2 mph56%30.09 "Hg10 mi
11:50 AM64 °FSunny.3 mph56%30.12 "Hg10 mi
11:20 AM63 °FSunny.2 mph59%30.12 "Hg10 mi
10:50 AM63 °FSunny.1 mph64%30.09 "Hg10 mi
10:20 AM61 °FSunny.1 mph63%30.09 "Hg10 mi
9:50 AM61 °FSunny.3 mph63%30.09 "Hg10 mi
9:20 AM57 °FSunny.6 mph72%30.09 "Hg10 mi
8:50 AM55 °FSunny.2 mph72%30.09 "Hg10 mi
8:20 AM52 °FPassing clouds.5 mph82%30.09 "HgN/A
7:50 AM50 °FSunny.9 mph82%30.07 "Hg10 mi
7:20 AM50 °FSunny.10 mph82%30.07 "Hg10 mi
6:50 AM48 °FClear.8 mph87%30.07 "Hg10 mi
6:20 AM46 °FClear.8 mph87%30.07 "Hg10 mi
5:50 AM48 °FClear.9 mph87%30.07 "Hg10 mi
5:20 AM48 °FClear.9 mph87%30.07 "Hg10 mi
9:50 PM
Apr 22
52 °FClear.7 mph77%29.98 "Hg10 mi
9:20 PM57 °FSunny.5 mph72%29.98 "Hg10 mi
8:50 PM59 °FPassing clouds.3 mph63%29.95 "HgN/A
8:20 PM57 °FSunny.3 mph63%29.95 "Hg10 mi
Weather by CustomWeather, © 2014

See weather overview